| time (UTC) | temp F | wind direction | speed MPH | gust MPH | rain 1hr in | rain 24hr in | rain mn in | humidity % | barometer mb |
| 20260504222058 | 53 | 165 | 9.0 | 16.0 | 0.00 | 0.00 | 0.00 | 79 | 1011.9 |
| 20260504221603 | 53 | 163 | 9.0 | 15.0 | 0.00 | 0.00 | 0.00 | 79 | 1011.9 |
| 20260504221057 | 54 | 194 | 9.0 | 14.0 | 0.00 | 0.00 | 0.00 | 79 | 1012.0 |
| 20260504220557 | 54 | 161 | 8.0 | 14.0 | 0.00 | 0.00 | 0.00 | 79 | 1012.0 |
| 20260504220103 | 54 | 143 | 8.0 | 13.0 | 0.00 | 0.00 | 0.00 | 78 | 1011.9 |
| 20260504215600 | 53 | 160 | 7.0 | 16.0 | 0.00 | 0.00 | 0.00 | 79 | 1012.0 |
| 20260504215057 | 53 | 161 | 9.0 | 17.0 | 0.00 | 0.00 | 0.00 | 78 | 1012.1 |
| 20260504214558 | 54 | 142 | 7.0 | 17.0 | 0.00 | 0.00 | 0.00 | 78 | 1012.1 |
| 20260504214057 | 54 | 158 | 11.0 | 17.0 | 0.00 | 0.00 | 0.00 | 78 | 1012.0 |
| 20260504213557 | 54 | 152 | 10.0 | 17.0 | 0.00 | 0.00 | 0.00 | 78 | 1011.9 |
| 20260504213109 | 54 | 184 | 11.0 | 18.0 | 0.00 | 0.00 | 0.00 | 77 | 1011.9 |
| 20260504212557 | 54 | 152 | 11.0 | 18.0 | 0.00 | 0.00 | 0.00 | 78 | 1012.0 |
| 20260504212100 | 54 | 232 | 10.0 | 17.0 | 0.00 | 0.00 | 0.00 | 76 | 1012.0 |
| 20260504211607 | 54 | 164 | 10.0 | 18.0 | 0.00 | 0.00 | 0.00 | 76 | 1012.0 |
| 20260504211057 | 54 | 162 | 11.0 | 19.0 | 0.00 | 0.00 | 0.00 | 77 | 1012.0 |
| 20260504210600 | 54 | 171 | 12.0 | 19.0 | 0.00 | 0.00 | 0.00 | 76 | 1012.0 |
| 20260504210059 | 54 | 181 | 11.0 | 20.0 | 0.00 | 0.00 | 0.00 | 76 | 1012.0 |
| 20260504205558 | 54 | 211 | 11.0 | 20.0 | 0.00 | 0.00 | 0.00 | 77 | 1011.9 |
| 20260504205058 | 54 | 177 | 13.0 | 19.0 | 0.00 | 0.00 | 0.00 | 76 | 1012.0 |
| 20260504204604 | 54 | 186 | 11.0 | 22.0 | 0.00 | 0.00 | 0.00 | 76 | 1011.9 |
| 20260504204057 | 54 | 186 | 14.0 | 22.0 | 0.00 | 0.00 | 0.00 | 76 | 1011.9 |
| 20260504203600 | 55 | 156 | 12.0 | 20.0 | 0.00 | 0.00 | 0.00 | 75 | 1011.8 |
| 20260504203115 | 55 | 178 | 13.0 | 19.0 | 0.00 | 0.00 | 0.00 | 76 | 1011.8 |
| 20260504202557 | 55 | 184 | 13.0 | 24.0 | 0.00 | 0.00 | 0.00 | 76 | 1011.7 |
| 20260504202056 | 55 | 152 | 16.0 | 24.0 | 0.00 | 0.00 | 0.00 | 75 | 1011.7 |
| 20260504201601 | 54 | 150 | 14.0 | 23.0 | 0.00 | 0.00 | 0.00 | 75 | 1011.8 |
| 20260504201102 | 54 | 161 | 15.0 | 23.0 | 0.00 | 0.00 | 0.00 | 75 | 1011.9 |
| 20260504200558 | 55 | 182 | 15.0 | 23.0 | 0.00 | 0.00 | 0.00 | 74 | 1012.1 |
| 20260504200104 | 55 | 144 | 12.0 | 22.0 | 0.00 | 0.00 | 0.00 | 74 | 1012.2 |
| 20260504195558 | 55 | 172 | 14.0 | 22.0 | 0.00 | 0.00 | 0.00 | 74 | 1012.2 |
| 20260504195058 | 55 | 159 | 13.0 | 20.0 | 0.00 | 0.00 | 0.00 | 74 | 1012.1 |
| 20260504194557 | 55 | 161 | 14.0 | 23.0 | 0.00 | 0.00 | 0.00 | 74 | 1012.2 |
| 20260504194058 | 55 | 172 | 13.0 | 23.0 | 0.00 | 0.00 | 0.00 | 73 | 1012.3 |
| 20260504193558 | 55 | 170 | 15.0 | 23.0 | 0.00 | 0.00 | 0.00 | 73 | 1012.2 |
| 20260504193100 | 56 | 146 | 12.0 | 20.0 | 0.00 | 0.00 | 0.00 | 73 | 1012.3 |
| 20260504192559 | 56 | 163 | 12.0 | 19.0 | 0.00 | 0.00 | 0.00 | 72 | 1012.2 |
| 20260504192057 | 55 | 168 | 12.0 | 20.0 | 0.00 | 0.00 | 0.00 | 72 | 1012.2 |
| 20260504191611 | 56 | 178 | 12.0 | 23.0 | 0.00 | 0.00 | 0.00 | 72 | 1012.2 |
| 20260504191057 | 55 | 169 | 13.0 | 23.0 | 0.00 | 0.00 | 0.00 | 74 | 1012.4 |
| 20260504190559 | 55 | 193 | 16.0 | 23.0 | 0.00 | 0.00 | 0.00 | 73 | 1012.4 |
| 20260504190121 | 55 | 169 | 14.0 | 23.0 | 0.00 | 0.00 | 0.00 | 73 | 1012.5 |
| 20260504185557 | 55 | 160 | 15.0 | 23.0 | 0.00 | 0.00 | 0.00 | 75 | 1012.5 |
| 20260504185057 | 55 | 196 | 13.0 | 23.0 | 0.00 | 0.00 | 0.00 | 72 | 1012.6 |
| 20260504184605 | 55 | 161 | 12.0 | 28.0 | 0.00 | 0.00 | 0.00 | 74 | 1012.6 |
| 20260504184057 | 55 | 165 | 14.0 | 28.0 | 0.00 | 0.00 | 0.00 | 73 | 1012.8 |
| 20260504183600 | 55 | 163 | 16.0 | 25.0 | 0.00 | 0.00 | 0.00 | 73 | 1012.9 |
| 20260504183105 | 55 | 173 | 15.0 | 25.0 | 0.00 | 0.00 | 0.00 | 74 | 1012.8 |
| 20260504182556 | 55 | 157 | 13.0 | 25.0 | 0.00 | 0.00 | 0.00 | 73 | 1012.8 |
| 20260504182059 | 55 | 162 | 15.0 | 24.0 | 0.00 | 0.00 | 0.00 | 73 | 1012.8 |
| 20260504181600 | 55 | 181 | 14.0 | 23.0 | 0.00 | 0.00 | 0.00 | 73 | 1012.8 |
| 20260504181057 | 56 | 192 | 12.0 | 20.0 | 0.00 | 0.00 | 0.00 | 73 | 1012.9 |
| 20260504180557 | 55 | 178 | 12.0 | 23.0 | 0.00 | 0.00 | 0.00 | 73 | 1012.9 |
| 20260504180112 | 55 | 167 | 13.0 | 24.0 | 0.00 | 0.00 | 0.00 | 74 | 1013.0 |
| 20260504175559 | 55 | 183 | 14.0 | 24.0 | 0.00 | 0.02 | 0.00 | 74 | 1013.0 |
| 20260504175057 | 55 | 184 | 12.0 | 19.0 | 0.00 | 0.02 | 0.00 | 73 | 1013.1 |
| 20260504174557 | 56 | 157 | 11.0 | 19.0 | 0.00 | 0.02 | 0.00 | 73 | 1013.1 |
| 20260504174057 | 56 | 178 | 9.0 | 18.0 | 0.00 | 0.02 | 0.00 | 74 | 1013.3 |
| 20260504173555 | 56 | 160 | 9.0 | 20.0 | 0.00 | 0.02 | 0.00 | 74 | 1013.3 |
| 20260504173057 | 56 | 163 | 9.0 | 20.0 | 0.00 | 0.02 | 0.00 | 73 | 1013.4 |
| 20260504172555 | 55 | 191 | 11.0 | 18.0 | 0.00 | 0.02 | 0.00 | 73 | 1013.4 |
| 20260504172056 | 55 | 187 | 10.0 | 18.0 | 0.00 | 0.02 | 0.00 | 75 | 1013.5 |
| 20260504171557 | 56 | 165 | 8.0 | 17.0 | 0.00 | 0.02 | 0.00 | 76 | 1013.5 |
| 20260504171059 | 55 | 197 | 11.0 | 17.0 | 0.00 | 0.02 | 0.00 | 76 | 1013.5 |
| 20260504170556 | 55 | 205 | 11.0 | 21.0 | 0.00 | 0.02 | 0.00 | 76 | 1013.6 |
| 20260504151059 | 54 | 202 | 13.0 | 19.0 | 0.00 | 0.02 | 0.00 | 72 | 1014.3 |
| 20260504150557 | 54 | 184 | 9.0 | 22.0 | 0.00 | 0.02 | 0.00 | 72 | 1014.4 |
| 20260504141059 | 54 | 190 | 11.0 | 21.0 | 0.00 | 0.02 | 0.00 | 71 | 1014.6 |
| 20260504140556 | 55 | 157 | 9.0 | 20.0 | 0.00 | 0.02 | 0.00 | 70 | 1014.6 |
| 20260504130557 | 54 | 200 | 9.0 | 18.0 | 0.00 | 0.02 | 0.00 | 69 | 1015.0 |
| 20260504110558 | 51 | 186 | 8.0 | 14.0 | 0.00 | 0.02 | 0.00 | 74 | 1014.8 |
| 20260504100558 | 50 | 163 | 6.0 | 12.0 | 0.00 | 0.02 | 0.00 | 78 | 1014.5 |
| 20260504081556 | 50 | 188 | 6.0 | 13.0 | 0.00 | 0.02 | 0.00 | 74 | 1013.9 |
| 20260504081057 | 50 | 184 | 8.0 | 13.0 | 0.00 | 0.02 | 0.00 | 74 | 1013.9 |
| 20260504080557 | 50 | 206 | 7.0 | 13.0 | 0.00 | 0.02 | 0.00 | 74 | 1013.9 |
| 20260504050558 | 50 | 190 | 3.0 | 8.0 | 0.00 | 0.02 | 0.00 | 73 | 1013.2 |
| 20260504050105 | 50 | 184 | 4.0 | 9.0 | 0.00 | 0.02 | 0.00 | 74 | 1013.1 |
| 20260504045558 | 50 | 236 | 3.0 | 10.0 | 0.00 | 0.02 | 0.00 | 74 | 1013.2 |
| 20260504045059 | 51 | 214 | 5.0 | 10.0 | 0.00 | 0.02 | 0.00 | 73 | 1013.3 |
| 20260504044601 | 51 | 226 | 4.0 | 10.0 | 0.00 | 0.02 | 0.00 | 72 | 1013.3 |
| 20260504044059 | 51 | 230 | 4.0 | 14.0 | 0.00 | 0.02 | 0.00 | 71 | 1013.3 |
| 20260504043559 | 51 | 199 | 6.0 | 14.0 | 0.00 | 0.02 | 0.00 | 70 | 1013.2 |
| 20260504043059 | 51 | 188 | 7.0 | 12.0 | 0.00 | 0.02 | 0.00 | 71 | 1013.2 |
| 20260504042559 | 51 | 187 | 5.0 | 12.0 | 0.00 | 0.02 | 0.00 | 72 | 1013.1 |
| 20260504042059 | 51 | 184 | 6.0 | 12.0 | 0.00 | 0.02 | 0.00 | 72 | 1013.1 |
| 20260504041601 | 51 | 181 | 5.0 | 10.0 | 0.00 | 0.02 | 0.00 | 73 | 1013.1 |
| 20260504041056 | 50 | 150 | 5.0 | 10.0 | 0.00 | 0.02 | 0.00 | 74 | 1013.0 |
| 20260504040556 | 50 | 192 | 4.0 | 10.0 | 0.00 | 0.02 | 0.00 | 74 | 1013.0 |
| 20260504040057 | 50 | 193 | 4.0 | 10.0 | 0.00 | 0.02 | 0.00 | 74 | 1013.0 |
| 20260504035556 | 50 | 188 | 4.0 | 10.0 | 0.00 | 0.02 | 0.02 | 75 | 1013.1 |
| 20260504035056 | 49 | 180 | 2.0 | 6.0 | 0.00 | 0.02 | 0.02 | 76 | 1013.0 |
| 20260504034600 | 49 | 190 | 2.0 | 6.0 | 0.00 | 0.02 | 0.02 | 76 | 1013.1 |
| 20260504034059 | 49 | 204 | 1.0 | 7.0 | 0.00 | 0.02 | 0.02 | 74 | 1013.0 |
| 20260504033557 | 49 | 0 | 2.0 | 7.0 | 0.00 | 0.02 | 0.02 | 73 | 1013.0 |
| 20260504033057 | 49 | 199 | 2.0 | 8.0 | 0.00 | 0.02 | 0.02 | 73 | 1012.9 |
| 20260504032557 | 49 | 200 | 3.0 | 8.0 | 0.00 | 0.02 | 0.02 | 72 | 1012.9 |
| 20260504032058 | 49 | 196 | 4.0 | 10.0 | 0.00 | 0.02 | 0.02 | 72 | 1012.9 |
| 20260504031557 | 48 | 182 | 5.0 | 10.0 | 0.00 | 0.02 | 0.02 | 73 | 1012.9 |
| 20260504031056 | 47 | 174 | 0.0 | 4.0 | 0.00 | 0.02 | 0.02 | 73 | 1012.9 |
| 20260504030556 | 47 | 196 | 2.0 | 4.0 | 0.00 | 0.02 | 0.02 | 73 | 1012.8 |
| 20260504030056 | 46 | 199 | 1.0 | 3.0 | 0.00 | 0.02 | 0.02 | 72 | 1012.9 |
| 20260504025557 | 44 | 229 | 0.0 | 0.0 | 0.00 | 0.02 | 0.02 | 72 | 1012.9 |
| 20260504025059 | 43 | 0 | 0.0 | 0.0 | 0.00 | 0.02 | 0.02 | 70 | 1012.9 |
| 20260504024616 | 42 | 0 | 0.0 | 0.0 | 0.00 | 0.02 | 0.02 | 70 | 1012.8 |
| 20260504024056 | 42 | 0 | 0.0 | 0.0 | 0.00 | 0.02 | 0.02 | 69 | 1012.9 |
| 20260504023556 | 42 | 0 | 0.0 | 0.0 | 0.00 | 0.02 | 0.02 | 68 | 1012.9 |
| 20260504023058 | 42 | 0 | 0.0 | 0.0 | 0.00 | 0.02 | 0.02 | 67 | 1012.8 |
| 20260504022602 | 42 | 0 | 0.0 | 0.0 | 0.00 | 0.02 | 0.02 | 66 | 1012.7 |
| 20260504022059 | 42 | 0 | 0.0 | 0.0 | 0.00 | 0.02 | 0.02 | 66 | 1012.7 |
| 20260504021557 | 43 | 0 | 0.0 | 0.0 | 0.00 | 0.02 | 0.02 | 66 | 1012.7 |
| 20260504021102 | 43 | 0 | 0.0 | 0.0 | 0.00 | 0.02 | 0.02 | 66 | 1012.7 |
| 20260504020557 | 43 | 0 | 0.0 | 0.0 | 0.00 | 0.02 | 0.02 | 64 | 1012.8 |
| 20260504020057 | 43 | 0 | 0.0 | 0.0 | 0.00 | 0.02 | 0.02 | 64 | 1012.7 |
| 20260504015557 | 44 | 0 | 0.0 | 0.0 | 0.00 | 0.02 | 0.02 | 64 | 1012.7 |
| 20260504015057 | 44 | 0 | 0.0 | 0.0 | 0.00 | 0.02 | 0.02 | 63 | 1012.6 |
| 20260504014604 | 45 | 0 | 0.0 | 0.0 | 0.00 | 0.02 | 0.02 | 62 | 1012.7 |
| 20260504014058 | 45 | 0 | 0.0 | 0.0 | 0.00 | 0.02 | 0.02 | 64 | 1012.6 |
| 20260504013556 | 45 | 0 | 0.0 | 0.0 | 0.00 | 0.02 | 0.02 | 62 | 1012.5 |
| 20260504013058 | 46 | 0 | 0.0 | 0.0 | 0.00 | 0.02 | 0.02 | 62 | 1012.4 |
| 20260504012557 | 46 | 0 | 0.0 | 0.0 | 0.00 | 0.02 | 0.02 | 63 | 1012.4 |
| 20260504012058 | 47 | 0 | 0.0 | 1.0 | 0.00 | 0.02 | 0.02 | 63 | 1012.4 |
| 20260504011559 | 47 | 0 | 0.0 | 1.0 | 0.00 | 0.02 | 0.02 | 61 | 1012.3 |
| 20260504011058 | 47 | 0 | 0.0 | 0.0 | 0.00 | 0.02 | 0.02 | 59 | 1012.2 |
| 20260504010559 | 48 | 0 | 0.0 | 0.0 | 0.00 | 0.02 | 0.02 | 57 | 1012.2 |
| 20260504010105 | 48 | 0 | 0.0 | 0.0 | 0.00 | 0.02 | 0.02 | 56 | 1012.1 |
| 20260504005559 | 48 | 0 | 0.0 | 0.0 | 0.00 | 0.02 | 0.02 | 55 | 1012.1 |
| 20260504005059 | 48 | 0 | 0.0 | 0.0 | 0.00 | 0.02 | 0.02 | 49 | 1012.0 |
| 20260504004600 | 49 | 0 | 0.0 | 0.0 | 0.00 | 0.02 | 0.02 | 50 | 1011.9 |
| 20260504004058 | 49 | 0 | 0.0 | 0.0 | 0.00 | 0.02 | 0.02 | 45 | 1011.8 |
| 20260504003557 | 49 | 0 | 0.0 | 0.0 | 0.00 | 0.02 | 0.02 | 43 | 1011.8 |
| 20260504003100 | 50 | 0 | 0.0 | 0.0 | 0.00 | 0.02 | 0.02 | 44 | 1011.7 |
| 20260504002557 | 51 | 0 | 0.0 | 0.0 | 0.00 | 0.02 | 0.02 | 44 | 1011.6 |
| 20260504002057 | 51 | 0 | 0.0 | 0.0 | 0.00 | 0.02 | 0.02 | 39 | 1011.6 |
| 20260504001557 | 52 | 0 | 0.0 | 0.0 | 0.00 | 0.02 | 0.02 | 38 | 1011.6 |
| 20260504001057 | 52 | 0 | 0.0 | 0.0 | 0.00 | 0.02 | 0.02 | 38 | 1011.5 |
| 20260504000557 | 52 | 0 | 0.0 | 0.0 | 0.00 | 0.02 | 0.02 | 37 | 1011.5 |
| 20260504000139 | 53 | 0 | 0.0 | 0.0 | 0.00 | 0.02 | 0.02 | 38 | 1011.3 |
| 20260503235557 | 53 | 0 | 0.0 | 0.0 | 0.00 | 0.02 | 0.02 | 36 | 1011.3 |
| 20260503235056 | 53 | 0 | 0.0 | 0.0 | 0.00 | 0.02 | 0.02 | 36 | 1011.2 |
| 20260503234602 | 53 | 0 | 0.0 | 0.0 | 0.00 | 0.02 | 0.02 | 35 | 1011.1 |
| 20260503234101 | 54 | 0 | 0.0 | 4.0 | 0.00 | 0.02 | 0.02 | 35 | 1011.0 |
| 20260503233558 | 54 | 0 | 0.0 | 4.0 | 0.00 | 0.02 | 0.02 | 34 | 1011.1 |
| 20260503233101 | 54 | 0 | 0.0 | 5.0 | 0.00 | 0.02 | 0.02 | 35 | 1011.0 |
| 20260503232557 | 55 | 0 | 0.0 | 5.0 | 0.00 | 0.02 | 0.02 | 34 | 1011.0 |
| 20260503232057 | 55 | 0 | 2.0 | 6.0 | 0.00 | 0.02 | 0.02 | 34 | 1010.9 |
| 20260503231557 | 55 | 272 | 1.0 | 6.0 | 0.00 | 0.02 | 0.02 | 34 | 1010.9 |
| 20260503231057 | 55 | 239 | 0.0 | 7.0 | 0.00 | 0.02 | 0.02 | 34 | 1010.9 |
| 20260503230559 | 55 | 0 | 1.0 | 13.0 | 0.00 | 0.02 | 0.02 | 34 | 1010.9 |
| 20260503230058 | 55 | 285 | 2.0 | 13.0 | 0.00 | 0.02 | 0.02 | 34 | 1010.9 |
| 20260503225556 | 56 | 307 | 5.0 | 13.0 | 0.00 | 0.02 | 0.02 | 33 | 1010.9 |
| 20260503225058 | 56 | 252 | 5.0 | 11.0 | 0.00 | 0.02 | 0.02 | 33 | 1010.9 |
| 20260503224649 | 56 | 0 | 3.0 | 9.0 | 0.00 | 0.02 | 0.02 | 33 | 1010.8 |
| 20260503224057 | 56 | 294 | 3.0 | 12.0 | 0.00 | 0.02 | 0.02 | 32 | 1010.7 |
| 20260503223556 | 56 | 296 | 5.0 | 12.0 | 0.00 | 0.02 | 0.02 | 31 | 1010.8 |
| 20260503223057 | 56 | 322 | 5.0 | 12.0 | 0.00 | 0.02 | 0.02 | 32 | 1010.7 |
| 20260503222556 | 56 | 281 | 5.0 | 10.0 | 0.00 | 0.02 | 0.02 | 32 | 1010.8 |